Regional Weather Roundup
Issued by NWS

Home | Current Version | Previous Version | Text Only | Print | Product List | Glossary On
Versions: 1 2 3 4 5 6 7 8 9 10 11 12 13 14 15 16 17 18 19 20 21 22 23 24 25 26 27 28 29 30 31 32 33 34 35 36 37 38 39 40 41 42 43 44 45 46 47 48 49 50
000
ASUS43 KDTX 242210
RWRMI
MICHIGAN HOURLY REGIONAL WEATHER ROUNDUP
NATIONAL WEATHER SERVICE DETROIT/PONTIAC MI
600 PM EDT MON APR 24 2017

NOTE: "FAIR" INDICATES FEW OR NO CLOUDS BELOW 12,000 FEET WITH NO
SIGNIFICANT WEATHER AND/OR OBSTRUCTION TO VISIBILITY.

MIZ047>049-052>055-059>063-066>070-074>076-081>083-242300-
SOUTHEAST LOWER MICHIGAN

CITY           SKY/WX    TMP DP  RH WIND       PRES   REMARKS
ADRIAN         SUNNY     66  36  32 SE17      29.93F
ALMA           MOSUNNY   67  46  47 E13       29.94S
ANN ARBOR      SUNNY     69  37  30 NE10      29.93F
BAD AXE        CLOUDY    61  43  51 NE8       30.00F
CARO           MOSUNNY   68  42  38 SE12      29.95F
DETROIT CITY   MOSUNNY   68  35  29 SE15      29.95F
DETROIT        PTSUNNY   70  32  24 E12       29.94F
FLINT          CLOUDY    69  31  24 SE10      29.94F
GROSSE ILE     SUNNY     66  37  33 E9        29.93F
HILLSDALE      SUNNY     66  34  30 E12G21    29.91F
HOWELL         SUNNY     68  23  17 E10       29.93F

CITY           SKY/WX    TMP DP  RH WIND       PRES   REMARKS
JACKSON        CLOUDY    69  33  26 E14G22    29.91F
LAMBERTVILLE   SUNNY     59  38  45 E12G17    29.94F
LANSING        SUNNY     70  26  19 SE15      29.93F
LAPEER         FAIR      69  38  31 E8G16     29.96F
MASON          MOSUNNY   69  35  28 SE8G21    29.92F
MONROE         SUNNY     62  41  45 E10G18    29.93F
MT. CLEMENS    PTSUNNY   68  38  33 E6        29.94F
PONTIAC        CLOUDY    69  27  20 SE13G22   29.94F
PORT HOPE        N/A     43  39  86 E8        30.01F
PORT HURON     SUNNY     59  41  51 NE9       29.97F
TRI CITIES     CLOUDY    54  46  74 NE18      29.97F
MIDLAND        FAIR      57  44  60 E10       29.96F
TROY           SUNNY     71  23  16 E10       29.97F
SAGINAW HB     MOSUNNY   57  45  62 N12       29.96F
$$
MIZ043>046-050>051-056>058-064>065-071>073-077>080-242300-
SOUTHWEST LOWER MICHIGAN

CITY           SKY/WX    TMP DP  RH WIND       PRES   REMARKS
BATTLE CREEK   SUNNY     71  29  21 E13       29.90F
BENTON HARBOR  SUNNY     73  27  18 SE14G21   29.84F
BIG RAPIDS     CLOUDY    67  32  27 S15       29.90F
COLDWATER      SUNNY     68  35  29 E10G16    29.89F
FREMONT        FAIR      70  31  24 E7G17     29.88F
HOLLAND        CLOUDY    72  33  24 SE16G22   29.87F
GRAND RAPIDS   CLOUDY    70  33  25 SE16G23   29.89F
IONIA          FAIR      69  30  23 SE14G20   29.90F
KALAMAZOO      SUNNY     73  28  18 SE10G20   29.88F
LUDINGTON      MOSUNNY   62  34  35 W3        29.87F
MARSHALL       MOSUNNY   70  31  23 E7G18     29.90F
MOUNT PLEASANT CLOUDY    68  40  36 E15       29.92F
MUSKEGON       CLOUDY    72  32  23 E13G21    29.87F
SOUTH HAVEN    SUNNY     73  23  15 SE9G16    29.85F
$$
MIZ016>042-242300-
NORTHERN LOWER MICHIGAN

CITY           SKY/WX    TMP DP  RH WIND       PRES   REMARKS
ALPENA         SUNNY     47  34  60 E14       30.05F
BEAVER ISLAND  CLOUDY    47  36  65 E12G17    29.95F
BELLAIRE       MOSUNNY   71  31  22 S10G18    29.89F
CADILLAC       CLOUDY    67  29  23 SE12G18   29.91F
CHARLEVOIX     SUNNY     60  40  46 NE12      29.93F
FRANKFORT      MOSUNNY   60  29  31 CALM      29.89F
GAYLORD        SUNNY     64  38  38 E10G18    29.93F
GRAYLING       SUNNY     67  32  28 SE12      29.94F
HARBOR SPRINGS SUNNY     56  38  51 E16G22    29.93F
HOUGHTON LAKE  MOSUNNY   66  33  29 SE14      29.94F
MANISTEE       SUNNY     61  30  31 W7        29.88F
OSCODA         MOSUNNY   46  34  61 NE13      30.03F
PELLSTON       SUNNY     54  35  48 E14       29.97F
ROGERS CITY    SUNNY     48  32  53 E15G23    30.04F
TRAVERSE CITY  CLOUDY    60  39  45 VRB6      29.88F
$$
MIZ007>008-015-242300-
EASTERN UPPER MICHIGAN

CITY           SKY/WX    TMP DP  RH WIND       PRES   REMARKS
KINROSS        MOSUNNY   48  31  51 SE17      30.02F
MACKINAC ISLAN CLOUDY    42  32  67 E17G30    30.00F
NEWBERRY       MOSUNNY   51  35  55 E17       29.95F
S. S. MARIE    PTSUNNY   49  30  48 SE17G26   30.02F
MUNISING         N/A     57  35  43 SE16      29.87F
$$
MIZ004>006-011>014-085-242300-
CENTRAL UPPER MICHIGAN

CITY           SKY/WX    TMP DP  RH WIND       PRES   REMARKS
MANISTIQUE     MOSUNNY   47  36  66 E17G23    29.93F
ESCANABA       CLOUDY    49  37  63 E12       29.90
MENOMINEE      CLOUDY    50  39  66 E8        29.88F
SAWYER-GWINN   SUNNY     54  36  50 S14       29.86F
$$
MIZ001>003-009>011-084-242300-
WESTERN UPPER MICHIGAN

CITY           SKY/WX    TMP DP  RH WIND       PRES   REMARKS
IRON MOUNTAIN  CLOUDY    59  37  44 SE13      29.81F
HOUGHTON       CLOUDY    43  32  65 E22G31    29.81F
COPPER HARBOR    N/A     43  32  65 SE12G21   29.86F
IRONWOOD       MOSUNNY   66  27  23 S16G23    29.69F
$$

ABBREVIATIONS USED IN REMARKS
   TC - TEMPERATURE IN CELSIUS
  WCI - WIND CHILL INDEX
   HX - HEAT INDEX
  VSB - VISIBILITY




USA.gov is the U.S. government's official web portal to all federal, state and local government web resources and services.